Regional Weather Roundup
Issued by NWS

Home | Current Version | Previous Version | Text Only | Print | Product List | Glossary On
Versions: 1 2 3 4 5 6 7 8 9 10 11 12 13 14 15 16 17 18 19 20 21 22 23 24 25 26 27 28 29 30 31 32 33 34 35 36 37 38 39 40 41 42 43 44 45 46 47 48 49 50
000
ASUS43 KMKX 281800
RWRWI

WISCONSIN REGIONAL WEATHER ROUNDUP
NATIONAL WEATHER SERVICE MILWAUKEE/SULLIVAN WI
100 PM CDT THU AUG 28 2014

NOTE: "FAIR" INDICATES FEW OR NO CLOUDS BELOW 12,000 FEET WITH NO
SIGNIFICANT WEATHER AND/OR OBSTRUCTIONS TO VISIBILITY.

WIZ001-002-006>008-014>016-023>028-281900-
NORTHWEST WISCONSIN

CITY           SKY/WX    TMP DP  RH WIND       PRES   REMARKS
SUPERIOR ARPT  MOSUNNY   69  56  64 E7        30.07F
ASHLAND        SUNNY     73  53  49 VRB3      30.10F
6HR MIN TEMP:  47; 6HR MAX TEMP:  73;

HAYWARD        MOSUNNY   71  54  54 SE9       30.10F
6HR MIN TEMP:  49; 6HR MAX TEMP:  71;

SIREN          PTSUNNY   72  56  56 S7        30.08F
RICE LAKE      PTSUNNY   70  56  60 SE8       30.10F
6HR MIN TEMP:  53; 6HR MAX TEMP:  71; 6HR PCP:  0.01;

LADYSMITH      PTSUNNY   71  55  56 S8        30.13F
EAU CLAIRE     NOT AVBL
MENOMONIE      CLOUDY    71  58  64 E8        30.08F
NEW RICHMOND   CLOUDY    72  60  65 E8        30.07F
OSCEOLA        PTSUNNY   71  60  67 E12       30.09F
$$

WIZ003>005-009-010-017-018-281900-
NORTH CENTRAL WISCONSIN

CITY           SKY/WX    TMP DP  RH WIND       PRES   REMARKS
WOODRUFF       SUNNY     71  49  46 SE5       30.13F
RHINELANDER    SUNNY     67  50  54 S5        30.15F
6HR MIN TEMP:  47; 6HR MAX TEMP:  69;

EAGLE RIVER    SUNNY     68  43  40 S5        30.14F
LAND O LAKES   SUNNY     70  45  40 E3        30.15F
PHILLIPS       PTSUNNY   69  53  54 S5        30.12F
TOMAHAWK       MOSUNNY   69  53  57 S3        30.15F
MEDFORD        CLOUDY    67  57  71 SE7       30.14F
MERRILL        MOSUNNY   67  58  71 S7        30.14F
$$

WIZ029-030-035-036-043>047-281900-
CENTRAL WISCONSIN

CITY           SKY/WX    TMP DP  RH WIND       PRES   REMARKS
WAUSAU         CLOUDY    64  58  80 E5        30.13F
6HR MIN TEMP:  51; 6HR MAX TEMP:  64;

MOSINEE        NOT AVBL
MARSHFIELD     CLOUDY    69  61  75 SE7       30.12F
6HR MIN TEMP:  53; 6HR MAX TEMP:  69;

STEVENS POINT  CLOUDY    67  58  72 CALM      30.14F
WAUPACA        CLOUDY    73  62  67 E7        30.14F
WAUTOMA        RAIN      73  61  64 VRB5      30.13F
WISC RAPIDS    PTSUNNY   72  60  66 CALM      30.13F
6HR MIN TEMP:  54; 6HR MAX TEMP:  73;

CAMP DOUGLAS   NOT AVBL
$$

WIZ011>013-019>022-031-037>040-048>050-281900-
NORTHEAST WISCONSIN

CITY           SKY/WX    TMP DP  RH WIND       PRES   REMARKS
ANTIGO         CLOUDY    65  57  76 S7        30.16F
STURGEON BAY   CLOUDY    63  54  72 SE12      30.17F
6HR MIN TEMP:  57; 6HR MAX TEMP:  64;

GREEN BAY      CLOUDY    68  59  73 S7        30.15S
6HR MIN TEMP:  60; 6HR MAX TEMP:  68;

MANITOWOC      NOT AVBL
APPLETON       CLOUDY    70  57  64 SE8       30.15F
CLINTONVILLE   CLOUDY    68  59  73 SE9       30.15S
OSHKOSH        PTSUNNY   72  61  68 VRB6      30.13F
6HR MIN TEMP:  60; 6HR MAX TEMP:  72;

$$

WIZ032>034-041-042-053>061-281900-
SOUTHWEST WISCONSIN

CITY           SKY/WX    TMP DP  RH WIND       PRES   REMARKS
LA CROSSE      LGT RAIN  73  62  68 S9        30.07F
6HR MIN TEMP:  60; 6HR MAX TEMP:  74; 6HR PCP: TRACE;

SPARTA         CLOUDY    72  59  63 S7        30.10F
VIROQUA        CLOUDY    69  63  79 SE6       30.10F
BOSCOBEL       CLOUDY    74  61  63 VRB5      30.09F
6HR MIN TEMP:  60; 6HR MAX TEMP:  74;

PRAIRIE DU CHI CLOUDY    70  60  71 E5        30.07F
PLATTEVILLE    PTSUNNY   72  63  74 SE7       30.11F
$$

WIZ056-057-062-063-064-067-068-281900-
SOUTH CENTRAL WISCONSIN

CITY           SKY/WX    TMP DP  RH WIND       PRES   REMARKS
BARABOO/DELLS  PTSUNNY   75  57  52 S9        30.11F
LONE ROCK      NOT AVBL
WATERTOWN      PTSUNNY   72  60  65 SE3       30.12F
MADISON        PTSUNNY   74  59  59 SE9       30.11F
6HR MIN TEMP:  58; 6HR MAX TEMP:  75;

MIDDLETON      MOCLDY    75  58  55 SE6       30.12F
MONROE         PTSUNNY   72  61  68 E7        30.11F
JANESVILLE     MOSUNNY   75  57  53 SE9       30.11F
$$

WIZ051-052-058>065-066-070>072-281900-
SOUTHEAST WISCONSIN

CITY           SKY/WX    TMP DP  RH WIND       PRES   REMARKS
MILWAUKEE      PTSUNNY   70  54  56 SE13      30.15S
6HR MIN TEMP:  64; 6HR MAX TEMP:  70;

WAUKESHA       MOSUNNY   72  55  56 E10       30.15F
MILWAUKEE/TIMM SUNNY     70  52  52 E10       30.16S
RACINE         SUNNY     71  54  54 E9        30.16F
6HR MIN TEMP:  65; 6HR MAX TEMP:  71;

BURLINGTON     SUNNY     71  55  56 E7        30.13F
KENOSHA        SUNNY     72  52  49 E10       30.14F
6HR MIN TEMP:  63; 6HR MAX TEMP:  72;

FOND DU LAC    CLOUDY    71  58  63 SE8       30.13F
6HR MIN TEMP:  58; 6HR MAX TEMP:  72;

SHEBOYGAN      SUNNY     70  55  59 SE8       30.16F
6HR MIN TEMP:  55; 6HR MAX TEMP:  70;

WEST BEND      MOSUNNY   70  52  52 E10G16    30.15F
JUNEAU         PTSUNNY   71  58  64 E5        30.14F
$$

LSZ147-162-281900-
LAKE SUPERIOR

STATION/POSITION TIME  TEMP    WIND        PRES    WAVE
                       AIR SEA DIR/SP/G            HT/PER
                 (UTC) (F)     (DEG/KT/KT) (MB)    (FT/S)
W MID LAKE BUOY  1650   58 56  130/  2/  2 1020.3F   0
DEVILS ISLAND    1700   61      30/  4/  4 1020.0F
PORT WING        1700   64      20/  6/  8 1019.3F
SAXON HARBOR     1700   64      40/  3/  5 1020.0
$$

LMZ867-665-643>646-281900-
LAKE MICHIGAN

STATION/POSITION TIME  TEMP    WIND        PRES    WAVE
                       AIR SEA DIR/SP/G            HT/PER
                 (UTC) (F)     (DEG/KT/KT) (MB)    (FT/S)
N MID LAKE BUOY  1650   62 65  160/  6/  8 1022.2F   0
NORTHPORT PIER   1700   64     140/ 11/ 13 1021.7F
SISTER BAY       1611   66     140/  6/  8   N/A
KEWAUNEE LAKESHO 1700   64     170/ 11/ 12 1020.7F
SHEBOYGAN LAKESH 1700   65 68  160/ 13/ 14 1021.8F
ATWATER BUOY     1700   67     130/ 10/ 14 1022.2F
MILWAUKEE LAKESH 1700   67     110/ 10/ 12   N/A
S MID LAKE BUOY  1650   65 69   80/ 10/ 10 1021.0R
KENOSHA   LAKESH 1700   69     120/  8/ 10 1020.7S
$$

TC  - TEMPERATURE IN CELSIUS
VSB - VISIBILITY IN STATUTE MILES
WCI - WIND CHILL INDEX
HX  - HEAT INDEX



USA.gov is the U.S. government's official web portal to all federal, state and local government web resources and services.